[ hide orbit diagram ]
For accurate long-term ephemerides, please instead use our Horizons system.This orbit viewer was implemented using two-body methods, and hence should not be used for determining accurate long-term trajectories (over several years or decades) or planetary encounter circumstances.
Orbital Elements at Epoch 2459200.5 (2020-Dec-17.0) TDB
Reference: JPL 13 (heliocentric ecliptic J2000)
Element | Value | Uncertainty (1-sigma) | Units |
e | .2125640973643633 | 5.1772e-08 | |
a | 2.24127885842167 | 1.2562e-08 | au |
q | 1.764863440939437 | 1.1551e-07 | au |
i | 5.726122982257944 | 5.8659e-06 | deg |
node | 109.7287972319995 | 4.5375e-05 | deg |
peri | 142.4202158515872 | 4.7426e-05 | deg |
M | 59.33283020998273 | 1.0542e-05 | deg |
tp | 2458998.507691405601 (2020-May-29.00769141) | 3.6353e-05 | TDB |
period | 1225.581703023985 3.36 | 1.0304e-05 2.821e-08 | d yr |
n | .2937380666762082 | 2.4695e-09 | deg/d |
Q | 2.717694275903903 | 1.5232e-08 | au |
|
| | Orbit Determination Parameters
Additional Information
|
[ show covariance matrix ]
Physical Parameter Table
Parameter |
Symbol |
Value |
Units |
Sigma |
Reference |
Notes |
absolute magnitude |
H |
17.59 |
|
n/a |
E2021B25 |
|
|
357979 (2006 BW184) Discovered 2006-Jan-28 by Mt. Lemmon Survey at Mount Lemmon |
Reference: 20130327/Numbers.arc | Last Updated: 2013-03-29 |
|
[ show close-approach data ]
|